Location: Balbersdorf
(49.2910°N, 12.6783°E)
Time: 07:34:42
(UTC+00:00)

Daily predictions for brighter satellites

Satellite Brightness Start Highest point End
(mag) Time Altitude Azimuth Time Altitude Azimuth Time Altitude Azimuth
Cosmos 2369 Rocket 3.7 16:18:38 10° WSW 16:23:51 36° NW 16:29:07 10° NNE
Cosmos 2297 Rocket 2.7 16:19:08 10° NNW 16:24:31 41° NE 16:29:50 10° ESE
ERS-2 2.7 16:21:34 10° NNE 16:25:00 37° E 16:28:25 10° S
Aureole 3 Rocket 4.4 16:22:08 10° SE 16:25:27 23° E 16:29:37 10° NNE
Meteor 1-11 4.3 16:20:01 10° N 16:25:45 70° ENE 16:31:30 10° SSE
COSMOS 2487 3.6 16:24:45 10° NNW 16:28:06 48° WSW 16:31:25 10° S
Cosmos 1340 3.8 16:25:38 10° NNE 16:28:45 24° ENE 16:31:52 10° ESE
COSMO-SKYMED 1 3.7 16:27:22 10° NE 16:30:54 24° E 16:34:24 10° SSE
CORIOLIS 4.1 16:26:38 10° SSE 16:31:58 81° ENE 16:37:22 10° NNW
H-2A R/B 2.2 16:28:53 10° NNE 16:33:04 75° WNW 16:37:10 10° SSW
FengYun 1-2 T 4.3 16:27:31 10° SSE 16:33:06 66° ENE 16:38:42 10° N
Cosmos 1110 Rocket 4.1 16:29:12 10° S 16:34:21 61° ESE 16:39:30 10° NNE
NOSS 2-2 (C) 4.4 16:31:49 10° NW 16:37:04 68° NE 16:44:24 10° SE
Lacrosse 5 2.8 16:34:31 10° W 16:39:15 38° NNW 16:44:00 10° ENE
Timation 2 Rocket 4.1 16:33:02 10° NNW 16:39:38 77° ENE 16:46:27 10° SE
Cosmos 1825 Rocket 3.5 16:35:55 10° N 16:40:24 82° E 16:44:50 10° SSE
ADEOS Rocket 3.5 16:36:46 10° NNE 16:43:05 75° WNW 16:50:07 10° SSW
Envisat 4.1 16:38:31 10° S 16:43:27 50° W 16:48:24 10° NNW
Cosmos 292 Rocket 4.0 16:39:01 10° S 16:43:38 50° ESE 16:48:18 10° NNE
Aureole 3 3.8 16:41:44 10° SE 16:44:14 22° E 16:46:39 10° NE
Meteor 2-21 Rocket 4.4 16:39:00 10° N 16:45:13 75° ENE 16:51:20 10° SSE
Okean O Rocket 2.1 16:41:10 10° S 16:45:30 65° WSW 16:49:51 10° NNW
FALCON 9 DEB 3.8 16:42:43 10° WNW 16:46:02 42° N 16:48:52 13° ENE
YAOGAN 1 3.6 16:43:55 10° ESE 16:47:28 26° ENE 16:51:03 10° N
USA 281 3.7 16:41:43 10° SSE 16:48:14 67° WSW 16:54:49 10° NNW
ERBS 4.0 16:45:36 10° WNW 16:48:21 23° N 16:51:06 10° NE
FALCON 9 DEB 3.8 16:45:44 10° SSW 16:48:43 35° SE 16:51:05 14° E
FALCON 9 DEB 3.6 16:49:56 10° SW 16:52:57 40° SSE 16:55:10 16° E
Feng Yun 1-1 Rocket 4.4 16:47:54 10° SSE 16:53:47 75° ENE 16:59:43 10° NNW
CZ-2C R/B 3.8 16:48:36 10° SE 16:53:47 36° ENE 16:58:50 10° N
SMAP 3.9 16:49:51 10° S 16:54:24 55° W 16:59:00 10° NNW
Cosmos 2219 3.2 16:49:10 10° NNW 16:54:56 67° ENE 17:00:39 10° SE
Cosmos 1455 3.9 16:54:28 10° ESE 16:56:10 14° E 16:56:10 14° E
Cosmos 1726 Rocket 3.5 16:53:15 10° S 16:57:34 67° E 17:01:56 10° NNE
Cosmos 1943 Rocket 4.5 16:54:37 10° WNW 16:58:14 17° NW 17:01:51 10° N
Cosmos 1553 Rocket 4.3 16:54:40 10° SSE 17:00:34 42° E 17:06:25 10° NNE
USA 307 3.1 16:57:17 10° WNW 17:01:32 57° NNE 17:04:41 17° E
Cosmos 2082 4.2 16:58:07 10° NNW 17:03:30 39° NE 17:08:49 10° ESE
Meteor 2-10 Rocket 4.3 16:59:05 10° SSE 17:03:32 28° E 17:07:52 10° NNE
Cosmos 2228 3.1 17:00:24 10° SSW 17:04:39 79° WNW 17:08:57 10° N
FALCON 9 DEB 3.4 17:01:48 10° SW 17:04:55 47° SSE 17:06:44 21° E
CZ-4B R/B 1.4 17:01:49 10° N 17:05:05 76° WNW 17:08:13 10° SSW
Cosmos 1939 Rocket 2.7 17:01:22 10° SSE 17:05:18 69° ENE 17:09:13 10° N
USA 308 3.1 17:02:08 10° WNW 17:06:23 59° NNE 17:09:20 19° E
ATLAS 5 CENTAUR R/B 3.7 17:05:24 10° WNW 17:08:47 20° NNW 17:12:31 10° NNE
CZ-4 R/B 4.4 17:05:45 10° SSE 17:09:50 62° ENE 17:13:59 10° N
Helios 1A Rocket 2.9 17:08:25 10° SSE 17:12:29 59° ENE 17:16:32 10° N
Cosmos 1606 Rocket 3.9 17:08:52 10° SSW 17:13:13 69° WNW 17:17:38 10° N
FALCON 9 DEB 3.0 17:13:22 10° SW 17:16:33 60° SSE 17:17:56 29° E
ARGOS 3.9 17:13:09 13° ESE 17:17:17 31° ENE 17:21:59 10° N
Okean-O 2.6 17:14:34 10° SSE 17:18:56 62° ENE 17:23:20 10° N
SKYMED 2 3.5 17:14:52 10° NNE 17:19:14 68° ESE 17:23:33 10° S
Cosmos 1689 Rocket 1.9 17:17:37 10° NNE 17:20:30 65° ESE 17:23:22 10° S
SL-08 R/B 4.4 17:15:10 10° N 17:21:21 71° ENE 17:27:27 10° SSE
Cosmos 1656 3.8 17:16:55 10° S 17:22:18 53° ESE 17:27:48 10° NE
Cosmos 1745 Rocket 4.1 17:18:21 10° N 17:24:33 56° ENE 17:30:45 10° SSE
Cosmos 1400 Rocket 2.7 17:20:49 10° S 17:24:55 80° E 17:29:01 10° NNE
H-2A R/B 2.4 17:21:39 10° SE 17:26:47 45° ENE 17:31:57 10° N
PSLV R/B 3.9 17:23:20 10° NNE 17:27:31 68° ESE 17:31:39 10° S
Ariane Rocket 4.3 17:27:38 20° ENE 17:27:43 20° ENE 17:31:23 10° NNE
GEOS 3 Rocket 3.8 17:24:33 18° ESE 17:28:26 59° NE 17:33:44 10° NW
Cosmos 2227 Rocket 2.2 17:23:12 10° NNW 17:28:54 89° ENE 17:34:33 10° SSE
CZ-4 R/B 1.1 17:25:24 10° SSE 17:29:16 70° ENE 17:33:07 10° N
Cosmos 2058 3.0 17:25:19 10° N 17:29:21 51° ENE 17:33:20 10° SSE
Cosmos 1892 2.6 17:26:48 10° N 17:30:42 74° E 17:34:34 10° SSE
Cosmos 2263 Rocket 3.3 17:29:45 10° NNW 17:34:23 25° NE 17:35:33 23° ENE
Cosmos 1408 2.6 17:31:19 10° N 17:34:54 53° ENE 17:37:15 20° SSE
CSL-04 Rocket 3.8 17:29:42 10° SE 17:35:05 53° ENE 17:40:26 10° N
BREEZE-M R/B 3.3 17:28:30 10° W 17:36:11 89° S 17:37:09 41° E
Cosmos 1386 Rocket 4.5 17:31:36 10° N 17:38:00 66° ENE 17:44:19 10° SSE
NOSS 3-4 (A) 4.2 17:34:14 10° NW 17:40:41 45° NE 17:44:11 28° E
NOSS 3-4 (C) 4.2 17:34:20 10° NW 17:40:47 45° NE 17:44:16 28° E
CZ-4C R/B 3.8 17:35:28 10° NW 17:41:10 30° NNE 17:44:25 22° ENE
Meteor 2-1 Rocket 4.2 17:36:28 10° S 17:41:47 52° E 17:47:08 10° NNE
Cosmos 1300 4.3 17:39:50 10° SW 17:43:24 36° WNW 17:46:58 10° N
Cosmos 2058 Rocket 3.6 17:42:10 10° SSW 17:46:36 63° WNW 17:51:07 10° N
Cosmos 1697 Rocket 2.9 17:41:35 10° S 17:46:54 45° ESE 17:49:37 26° NE
SeaSat 1 2.7 17:46:28 35° ESE 17:48:08 49° NE 17:52:55 10° NNW
CZ-2D R/B 4.0 17:44:33 10° S 17:48:17 53° W 17:52:02 10° NNW
SL-4 R/B 1.8 17:44:54 10° WNW 17:48:29 66° N 17:49:04 55° ENE
Cosmos 1346 Rocket 2.7 17:45:38 10° NNW 17:49:39 89° ENE 17:53:38 10° S
CRYOSAT 2 4.3 17:46:42 10° N 17:51:32 60° E 17:56:20 10° S
NOSS 3-3 (A) 4.1 17:46:09 10° SSW 17:51:42 48° ESE 17:54:18 31° ENE
NOSS 3-3 (C) 4.1 17:46:15 10° SSW 17:51:50 48° ESE 17:54:24 31° ENE
Cosmos 1825 2.2 17:48:10 10° N 17:51:38 53° ENE 17:51:38 53° ENE
USA 305 2.8 17:47:59 10° WNW 17:52:19 89° SW 17:53:27 49° ESE
Cosmos 1709 Rocket 4.1 17:48:04 10° N 17:54:19 55° ENE 17:59:42 14° SSE
USA 215 3.6 17:51:39 30° ENE 17:54:46 54° NNE 18:01:06 10° WNW
Cosmos 44 4.0 17:51:10 10° WSW 17:55:37 50° NW 17:59:04 18° NNE
Cosmos 1315 Rocket 2.7 17:52:10 10° S 17:56:05 61° E 17:56:20 60° ENE
SJ-11-01 4.1 17:53:43 12° SSE 17:58:00 78° ENE 18:02:42 10° NNW
USA 306 2.8 17:54:24 10° WNW 17:58:42 83° SSW 17:59:35 56° SE
BREEZE-M R/B 3.7 17:58:14 10° W 18:02:23 86° SSW 18:05:18 37° ESE
ATLAS 2AS CENTAUR R/B 3.2 17:55:30 10° NW 18:02:53 48° NNE 18:05:17 36° E
Cosmos 968 Rocket 4.1 17:59:00 10° NNW 18:04:08 57° WSW 18:09:11 10° S
HJ-1C 4.4 18:07:28 39° NNW 18:07:28 39° NNW 18:09:41 10° NNW
COSMO-SKYMED 1 3.8 18:03:07 10° N 18:07:13 41° WNW 18:11:18 10° SW
MOS 1 Rocket 3.2 18:03:27 10° NNE 18:08:07 73° ESE 18:13:03 10° S
Cosmos 2297 Rocket 3.5 18:03:18 10° NW 18:08:34 40° WSW 18:13:48 10° S
Cosmos 1980 Rocket 3.3 18:04:28 10° S 18:07:19 26° SSE 18:07:19 26° SSE
Cosmos 1076 Rocket 3.4 18:05:21 10° N 18:09:37 83° W 18:11:35 31° S
Cosmos 1777 Rocket 4.4 18:06:18 10° NNW 18:10:51 42° NE 18:10:51 42° NE
Cosmos 883 Rocket 4.4 18:05:29 10° S 18:11:32 63° E 18:17:35 10° NNE
CSL-04 Debris 4.3 18:10:06 10° S 18:15:32 74° WSW 18:21:02 10° NNW
Cosmos 2315 Rocket 4.0 18:09:33 10° SSE 18:15:34 56° E 18:21:37 10° NNE
S3M 4.0 18:10:00 10° SSW 18:16:07 80° W 18:22:20 10° N
Lacrosse 5 2.7 18:18:27 10° WNW 18:23:11 38° NNE 18:23:30 37° NNE
YAOGAN 1 3.9 18:19:21 10° SSW 18:23:25 39° W 18:27:30 10° NNW
Cosmos 2360 4.1 18:20:03 10° SSW 18:25:43 69° ESE 18:26:15 65° E
Cosmos 1812 Rocket 3.7 18:26:36 10° SSW 18:35:45 - N 18:30:37 67° WSW
Cosmos 1455 3.2 18:28:08 10° SSW 18:31:13 44° WSW 18:31:13 44° WSW
CZ-2C R/B 4.4 18:28:02 10° S 18:33:33 44° W 18:38:55 10° NNW
Meteor 2-3 Rocket 4.0 18:30:05 10° N 18:34:44 51° NNE 18:34:44 51° NNE
USA 307 3.9 18:37:27 10° WNW 18:40:52 43° WSW 18:40:52 43° WSW
USA 308 4.1 18:42:18 10° WNW 18:45:31 39° WSW 18:45:31 39° WSW
ATLAS 5 CENTAUR R/B 4.0 18:51:56 10° NNW 18:55:01 17° N 18:55:01 17° N
ARGOS 4.0 18:54:41 27° SSW 18:57:22 48° W 19:02:38 10° NNW
Cosmos 2369 4.0 18:57:04 10° SW 19:02:43 63° WNW 19:03:11 60° NNW
Ariane Rocket 4.0 19:07:51 42° NNW 19:07:51 42° NNW 19:11:17 10° NNW
H-2A R/B 3.8 19:01:32 10° SSW 19:06:20 32° W 19:11:11 10° NNW
Cosmos 1844 Rocket 4.5 19:02:54 10° NNW 19:05:18 21° N 19:05:18 21° N
Cosmos 2263 Rocket 3.0 19:13:15 10° NNW 19:17:16 47° NW 19:17:16 47° NW
SeaSat 1 4.1 19:26:15 30° W 19:26:15 30° W 19:30:10 10° NW
CZ-4C R/B 3.2 19:23:57 10° NW 19:29:36 58° N 19:29:36 58° N
Cosmos 1697 Rocket 4.0 19:25:49 10° WSW 19:31:00 37° NW 19:31:25 36° NW
NOSS 3-4 (A) 4.1 19:25:06 10° NW 19:31:39 63° WSW 19:31:39 63° WSW
NOSS 3-4 (C) 4.1 19:25:12 10° NW 19:31:43 64° WSW 19:31:43 64° WSW
USA 215 3.6 19:39:00 59° WNW 19:39:00 59° WNW 19:44:12 10° WNW
ATLAS 2AS CENTAUR R/B 3.4 19:46:48 10° NW 19:52:43 51° W 19:52:43 51° W
Lacrosse 5 4.5 20:01:36 10° NW 20:02:41 17° NW 20:02:41 17° NW
